2021-061C (49005 NORAD) Tracking and Keplerian Element Data

This shows tracking and keplerian element data for the satellite.

Feedback or suggestion? Click here.




ElementValue
Catalog49005
Name2021-061C
Epoch Orbit409
Epoch Day211.21841928
Epoch Year2021
RAAN278.0258
Inclination97.5372
Eccentricity0.0012405
Argument of Perigee179.8354
Mean Anonmoly266.0963
Mean Motion15.09842842
Decay Rate4.26E-06
L11 49005U 21061C 21211.21841928 .00000426 00000-0 30229-4 0 9992
L22 49005 97.5372 278.0258 0012405 179.8354 266.0963 15.09842842 4092

Live tracking and technical data element details for 2021-061C (NORAD 49005). 2021-061C can be tracked NOW for your location showing map with azimuth and elevation plus other details from your city location.

Track the satellite on the map from your city or location and see movement details for azimuth, elevation, latitude, longitude, range, height, and movement on the map or in text.







IsCatalogInMostPopularTable: catalog: 49005, numindb: 8
Update: records affected: 1



GetName: 49005 2021-061C

Hit Count: updated at: Sat, 31 Jul 2021 16:02:54 GMT